Weather History for Juliana Airport, St. Martin

Change the Weather History Date:

Wednesday, June 5, 2013

  Actual Average Record
Temperature  
Mean Temperature 84 °F -  
Max Temperature 87 °F 85 °F 100 °F (2011)
Min Temperature 80 °F 77 °F 77 °F (2012)
Cooling Degree Days 18    
Growing Degree Days 34 (Base 50)    
Moisture  
Dew Point 73 °F    
Average Humidity 71    
Maximum Humidity 79    
Minimum Humidity 59    
Precipitation  
Precipitation 0.00 in 0.09 in - ()
Sea Level Pressure  
Sea Level Pressure 30.02 in    
Wind  
Wind Speed 11 mph ()    
Max Wind Speed 15 mph    
Max Gust Speed 22 mph    
Visibility 8.4 miles    
Events Rain    
Averages and records for this station are not official NWS values.
T = Trace of Precipitation, MM = Missing Value Source: Averaged Metar Reports

Daily Weather History Graph

Daily Weather History Graph

Search for Another Location

Airport:

Trip Planner

Search our weather history database for the weather conditions in past years. The results will help you decide how hot, cold, wet, or windy it might be!

Date:

Astronomy

Jun. 05, 2013 Rise Set
Actual Time 5:35 AM AST 6:46 PM AST
Civil Twilight 5:11 AM AST 7:10 PM AST
Nautical Twilight 4:43 AM AST 7:38 PM AST
Astronomical Twilight 4:14 AM AST 8:07 PM AST
Moon 3:18 AM AST (6/5) 4:23 PM AST (6/5)
Length of Visible Light 13h 58m
Length of Day
13h 10m
Waning Crescent, 8% of the Moon is Illuminated
Jun 5
Waning Crescent
Jun 8
New
Jun 16
First Quarter
Jun 23
Full
Jun 30
Last Quarter

Hourly Weather History & Observations

Time (AST) Temp. Heat Index Dew Point Humidity Pressure Visibility Wind Dir Wind Speed Gust Speed Precip Events Conditions
12:00 AM 82.4 °F 88.2 °F 73.4 °F 74% 30.04 in 6.2 mi East 11.5 mph - N/A   Scattered Clouds
1:00 AM 80.6 °F 85.4 °F 73.4 °F 79% 30.01 in 6.2 mi ESE 13.8 mph - N/A   Scattered Clouds
2:00 AM 81 °F - 74 °F 74% 30.01 in 11 mi East 10.4 mph - -   Partly Cloudy
2:00 AM 80.6 °F 85.4 °F 73.4 °F 79% 30.01 in 6.2 mi East 10.4 mph 21.9 mph N/A   Scattered Clouds
3:00 AM 80.6 °F 85.4 °F 73.4 °F 79% 30.01 in 6.2 mi East 12.7 mph - N/A   Scattered Clouds
4:00 AM 80.6 °F 85.4 °F 73.4 °F 79% 30.01 in 6.2 mi East 11.5 mph - N/A   Scattered Clouds
5:00 AM 81 °F - 74 °F 73% 30.02 in 12 mi East 12.7 mph - -   Partly Cloudy
5:00 AM 80.6 °F 85.4 °F 73.4 °F 79% 30.01 in 6.2 mi East 12.7 mph - N/A   Scattered Clouds
6:00 AM 80.6 °F 85.4 °F 73.4 °F 79% 30.04 in 6.2 mi East 11.5 mph - N/A   Partly Cloudy
7:00 AM 80.6 °F 85.4 °F 73.4 °F 79% 30.04 in 6.2 mi East 8.1 mph - N/A   Scattered Clouds
8:00 AM 82 °F - 74 °F 70% 30.05 in 16 mi East 11.5 mph - - Rain Light Rain Showers
8:00 AM 82.4 °F 88.2 °F 73.4 °F 74% 30.04 in 6.2 mi East 11.5 mph - N/A   Scattered Clouds
9:00 AM 84.2 °F 90.9 °F 73.4 °F 70% 30.04 in 6.2 mi East 11.5 mph - N/A   Scattered Clouds
10:00 AM 85 °F - 73 °F 59% 30.06 in 16 mi East 12.7 mph - -   Partly Cloudy
10:00 AM 84.2 °F 90.9 °F 73.4 °F 70% 30.04 in 6.2 mi East 12.7 mph - N/A   Scattered Clouds
11:00 AM 86.0 °F 93.4 °F 73.4 °F 66% 30.06 in 6.2 mi East 12.7 mph - N/A   Scattered Clouds
12:00 PM 86.0 °F 91.8 °F 71.6 °F 62% 30.04 in 6.2 mi East 15.0 mph - N/A   Scattered Clouds
1:00 PM 86.0 °F 91.8 °F 71.6 °F 62% 30.04 in 6.2 mi East 12.7 mph - N/A   Scattered Clouds
2:00 PM 85 °F - 73 °F 61% 30.02 in 16 mi East 12.7 mph - -   Mostly Cloudy
2:00 PM 86.0 °F 93.4 °F 73.4 °F 66% 30.01 in 6.2 mi East 12.7 mph - N/A   Scattered Clouds
3:00 PM 86.0 °F 91.8 °F 71.6 °F 62% 29.98 in 6.2 mi East 11.5 mph - N/A   Scattered Clouds
4:00 PM 84.2 °F 89.6 °F 71.6 °F 66% 29.98 in 6.2 mi East 9.2 mph - N/A   Mostly Cloudy
5:00 PM 84 °F - 72 °F 59% 29.99 in 16 mi East 11.5 mph - -   Mostly Cloudy
5:00 PM 84.2 °F 89.6 °F 71.6 °F 66% 29.98 in 6.2 mi East 11.5 mph - N/A   Scattered Clouds
6:00 PM 82.4 °F 87.2 °F 71.6 °F 70% 29.98 in 6.2 mi East 9.2 mph - N/A   Scattered Clouds
7:00 PM 80.6 °F 84.6 °F 71.6 °F 74% 29.98 in 6.2 mi East 9.2 mph - N/A   Partly Cloudy
8:00 PM 81 °F - 71 °F 65% 30.00 in 16 mi East 12.7 mph - -   Partly Cloudy
8:00 PM 80.6 °F 84.6 °F 71.6 °F 74% 29.98 in 6.2 mi East 12.7 mph - N/A   Scattered Clouds
9:00 PM 80.6 °F 84.6 °F 71.6 °F 74% 30.01 in 6.2 mi East 10.4 mph - N/A   Scattered Clouds
10:00 PM 80.6 °F 84.6 °F 71.6 °F 74% 30.01 in 6.2 mi East 9.2 mph - N/A   Scattered Clouds
11:00 PM 80 °F - 71 °F 67% 30.02 in 16 mi East 11.5 mph - -   Partly Cloudy
11:00 PM 80.6 °F 84.6 °F 71.6 °F 74% 30.01 in 6.2 mi East 11.5 mph - N/A   Scattered Clouds